Wind_Speed
23 22 21 21 21 19 19 23 25 19 13 15 15 16 14 9 7 7 6 5 5 5 6 6 7 7 6 7 6 6 7 7 7 8 8 8 8 8 8 8 8 8 8 7 7 7 7 6 6 5 5 5 5 5 5 5 5 5 5 5 5 6 6 7 8 9 10 11 12 13 14 14 14 14 14 14 14 14 14 13 12 11 11 10 11
15 16 17 17 17 17 17 20 22 18 14 13 17 19 16 11 10 9 7 7 6 6 6 6 7 7 7 7 7 6 6 6 7 7 8 9 8 8 8 8 7 7 6 6 6 6 6 6 6 5 5 5 4 4 3 3 4 5 5 5 5 6 5 6 7 8 9 11 12 12 13 14 15 15 16 15 15 15 14 14 14 13 13 12 12
7 9 10 10 12 13 15 18 18 15 14 16 20 21 17 12 12 11 10 10 9 8 8 8 8 9 9 9 8 7 7 6 6 7 8 8 8 7 7 7 6 6 5 4 4 4 4 4 4 4 5 5 5 4 3 3 3 4 5 5 5 5 5 5 6 7 8 10 10 11 12 13 15 16 16 16 16 15 15 14 14 14 14 13 13
3 4 5 6 8 10 14 16 16 16 17 20 23 24 20 15 14 14 13 13 12 11 11 10 10 10 10 10 9 9 8 7 7 7 7 7 7 7 6 4 4 3 3 2 2 2 2 3 3 3 3 4 4 5 5 4 4 4 5 6 6 6 5 5 6 7 8 9 9 10 11 12 14 15 16 17 17 16 16 16 15 15 15 15 15
3 4 4 5 6 9 12 13 15 19 20 19 21 24 23 19 17 17 17 16 15 15 14 12 12 12 11 11 10 9 9 8 8 7 8 8 7 7 6 4 2 1 0 2 3 3 4 4 5 5 5 5 5 5 6 6 6 6 6 6 6 6 6 5 6 7 7 8 9 10 11 12 13 14 15 16 17 18 18 19 18 17 17 17 17
1 1 3 5 6 6 8 10 13 18 18 16 16 19 23 23 20 18 19 19 19 18 17 16 14 13 12 11 10 9 8 8 8 8 8 8 8 8 7 5 4 3 4 4 5 6 7 7 8 8 9 9 9 8 8 8 8 8 8 7 8 8 7 6 7 8 8 8 9 10 11 12 13 14 15 15 16 17 18 19 20 21 21 21 21
1 1 3 6 7 7 8 10 12 15 16 16 16 18 22 25 23 20 20 22 23 22 21 20 18 16 15 13 12 11 10 9 9 10 10 10 9 9 8 8 7 6 6 7 8 9 10 10 10 11 12 12 12 12 12 12 11 11 11 11 10 10 9 8 8 8 9 9 10 10 11 12 13 14 15 16 16 18 18 19 20 21 21 22 23
1 1 4 6 7 8 10 11 13 14 16 17 18 19 23 26 25 23 22 23 25 25 25 23 21 19 18 16 15 14 13 12 12 12 12 12 10 10 10 10 10 10 9 8 9 10 12 12 12 13 14 14 15 15 15 15 15 15 14 14 13 13 12 12 11 10 11 11 11 11 12 13 14 15 16 17 19 20 21 21 21 22 21 22 23
4 2 0 1 2 4 7 10 14 16 18 21 22 22 25 28 26 24 23 22 23 25 27 26 23 21 20 19 19 18 17 17 16 14 15 14 12 10 9 10 12 12 12 11 12 13 14 14 14 15 15 16 17 18 18 18 18 18 18 16 15 15 15 15 13 12 13 13 13 13 12 13 15 16 17 19 21 23 24 24 24 24 24 23 24
6 6 5 3 2 1 4 7 10 14 16 20 21 21 24 29 27 22 20 20 21 24 26 26 24 22 20 20 21 22 22 22 20 18 18 19 16 13 12 14 14 13 13 14 15 14 14 14 15 15 16 16 17 18 20 21 20 21 20 18 17 17 17 16 15 15 15 14 14 14 14 15 16 17 18 21 23 24 26 26 26 26 26 26 27
6 5 5 4 2 1 2 4 8 10 12 14 16 17 20 26 28 25 22 21 21 23 25 27 27 27 25 25 26 25 24 23 23 22 20 17 15 15 17 18 17 16 15 15 14 13 14 15 16 17 17 17 17 18 19 21 22 21 20 18 18 18 18 18 17 17 16 16 16 17 17 17 17 18 19 22 24 26 27 27 27 27 28 29 30
4 4 3 2 0 1 2 4 6 8 9 11 12 14 17 21 25 26 24 21 20 22 25 27 29 32 34 35 32 27 24 22 21 21 20 18 17 17 19 19 17 16 14 14 14 15 16 17 17 18 18 18 18 18 18 20 21 21 20 18 19 20 19 18 18 18 18 17 17 18 17 17 17 18 20 22 25 28 28 28 28 29 30 31 32
3 3 2 2 2 2 3 4 5 7 9 9 10 11 14 18 20 21 20 18 19 22 22 22 25 29 34 36 33 28 25 23 18 17 18 18 18 18 18 17 16 14 14 14 15 15 15 14 14 15 15 16 16 17 17 19 20 20 19 19 20 21 20 18 18 18 18 17 17 18 17 17 18 19 20 22 26 28 28 28 29 30 31 33 34
5 4 4 3 3 4 5 6 7 8 9 10 10 11 13 16 17 18 19 19 20 20 18 19 20 22 24 26 25 23 22 21 18 15 14 14 16 16 14 13 12 12 12 11 11 10 9 9 8 9 10 12 13 14 15 16 17 16 16 17 19 20 19 18 19 18 18 17 18 19 18 18 19 20 22 24 26 27 27 28 29 30 32 34 35
4 4 4 5 5 4 6 7 8 9 10 12 13 14 16 18 20 21 22 22 21 18 17 18 19 18 17 17 17 18 18 19 17 15 13 13 14 13 11 9 9 8 7 7 6 5 5 5 5 6 7 8 10 10 11 11 10 9 10 13 17 19 19 18 19 18 18 19 19 19 19 19 20 22 25 27 27 27 28 29 30 32 34 34 34
4 4 4 4 5 5 6 7 8 8 10 13 16 18 19 20 22 22 21 21 20 18 18 18 17 15 14 14 15 16 17 17 16 15 14 14 13 11 9 8 6 6 5 4 3 3 4 4 4 4 4 5 6 7 6 6 6 6 8 12 16 17 18 18 18 19 19 20 20 20 20 20 22 24 27 27 28 28 30 31 31 32 33 33 33
4 5 5 6 7 7 7 7 8 8 8 10 13 16 18 18 19 19 20 21 20 19 18 18 16 15 14 15 16 17 18 17 16 16 15 14 12 10 8 6 5 5 4 3 4 5 6 6 6 6 6 5 4 4 3 3 5 7 10 13 14 16 17 18 20 20 20 20 20 20 21 22 25 27 28 28 28 30 30 30 29 30 31 31 29
6 6 7 8 9 10 10 9 9 9 8 8 8 11 13 15 16 18 19 20 19 17 17 16 15 16 16 16 17 17 17 17 17 16 15 13 11 9 7 6 5 4 4 5 6 7 8 8 8 8 8 7 6 4 3 4 6 9 12 13 15 17 18 20 20 21 21 21 22 22 24 26 27 28 28 29 30 31 30 29 29 30 30 29 27
9 10 10 11 11 11 13 13 12 11 11 9 7 7 9 11 12 14 15 14 14 14 13 13 14 15 15 16 16 16 17 17 17 16 14 12 10 8 7 6 5 5 5 7 7 8 9 9 8 8 8 7 6 5 4 5 8 10 12 14 16 17 19 20 20 21 22 22 23 25 26 27 28 29 30 31 31 30 30 30 30 30 30 28 27
13 13 14 14 14 13 14 14 15 15 13 11 10 9 9 9 10 10 11 11 11 12 11 12 13 14 14 16 16 17 18 18 17 15 14 12 10 8 7 6 5 5 6 6 7 7 7 7 7 7 7 7 7 7 7 8 9 11 13 14 16 18 19 19 20 21 21 23 25 26 27 28 29 30 30 31 31 31 31 31 30 29 29 30 29
17 17 16 16 16 15 14 14 15 16 15 14 14 14 13 12 11 11 12 12 13 13 13 13 14 14 15 16 17 18 18 17 16 14 13 11 10 8 8 7 6 5 5 5 5 6 6 6 6 6 7 7 8 9 10 11 11 13 14 16 17 18 19 20 21 22 23 25 26 28 28 29 29 30 30 30 30 30 30 30 30 29 29 30 29
21 20 20 19 18 16 15 14 14 14 14 15 16 17 16 16 15 15 15 15 15 16 15 15 15 16 16 17 17 17 16 15 14 12 11 10 9 8 8 6 4 3 3 4 5 5 5 6 6 7 7 8 9 9 10 11 12 13 14 16 17 18 20 21 22 23 24 25 26 27 27 28 29 29 29 29 29 29 29 28 29 28 28 29 27
23 23 22 22 22 20 19 17 15 14 14 15 18 20 19 18 18 18 18 19 19 18 17 17 17 17 18 17 16 15 13 12 11 10 9 9 8 8 7 5 3 3 3 4 5 5 5 6 7 8 8 9 9 10 10 11 13 14 15 16 17 18 19 20 21 22 23 24 25 26 26 27 27 28 28 28 28 28 28 28 28 28 28 28 26
26 26 25 25 25 24 23 21 19 17 15 15 18 21 22 22 22 21 21 21 22 22 21 21 20 20 19 18 16 14 11 9 9 8 7 7 7 6 6 5 4 4 4 4 5 5 6 7 8 8 9 9 9 10 11 12 13 14 14 15 16 17 18 19 21 22 23 24 24 25 25 26 26 27 27 27 27 27 27 27 28 27 27 27 26
28 28 28 27 27 26 25 24 23 21 19 16 16 20 23 25 25 24 23 23 24 25 25 26 25 24 22 19 16 13 11 9 8 7 7 7 7 6 6 6 6 5 5 5 6 7 7 7 8 8 8 9 9 9 10 11 11 12 13 15 16 17 18 19 20 21 22 23 23 24 24 25 25 26 26 26 26 26 25 24 25 26 26 25 25
30 30 30 29 29 28 27 27 26 25 23 19 17 18 21 24 27 27 26 25 26 26 27 28 26 25 23 20 17 14 11 9 8 6 6 6 7 7 8 7 7 7 7 7 7 7 7 7 7 7 7 8 8 9 9 10 11 13 14 15 17 17 18 19 19 20 21 22 23 24 24 25 25 25 25 25 25 24 23 23 23 24 23 22 22
31 31 31 31 31 30 29 29 29 29 27 24 21 20 19 21 24 27 27 27 28 28 28 28 26 24 22 19 17 14 11 8 7 7 7 8 8 8 8 8 8 8 8 7 7 7 7 7 7 7 7 7 8 9 10 11 13 14 16 16 17 17 17 17 18 19 20 21 23 24 23 24 25 25 24 24 24 23 22 22 22 23 22 21 20
34 33 32 32 32 33 32 31 30 30 30 29 28 27 25 22 21 22 23 24 26 26 26 25 25 23 20 17 14 13 11 9 10 11 12 11 10 9 9 9 9 9 8 7 7 6 6 6 7 7 7 7 8 9 11 12 14 15 16 16 16 16 16 17 18 19 20 22 23 23 21 22 24 24 24 23 23 22 21 20 20 21 21 20 20
34 35 34 33 33 33 33 33 32 30 30 31 30 31 31 29 26 24 23 22 21 21 23 24 24 22 19 17 17 16 13 11 12 14 15 13 12 10 9 9 10 9 8 7 7 6 6 6 6 6 6 7 9 10 12 13 14 15 14 14 14 14 15 16 18 20 21 22 23 23 22 22 23 23 22 22 22 22 21 20 20 21 20 19 20
30 33 33 33 34 34 33 34 34 32 31 31 29 28 29 32 33 31 29 26 22 19 20 21 21 19 17 16 18 18 15 12 15 18 17 14 11 9 9 9 10 10 9 8 7 6 5 5 5 6 7 8 9 11 12 13 13 12 12 11 11 13 15 17 19 20 21 22 22 22 22 22 22 22 21 21 22 22 22 21 20 19 19 19 20
26 29 29 29 31 32 33 34 34 32 31 32 31 28 26 28 31 32 31 29 24 23 24 23 20 16 15 16 19 19 15 14 18 19 16 12 10 9 8 9 10 11 10 9 7 6 5 5 5 6 7 9 10 11 11 11 10 9 9 10 11 14 16 18 20 21 21 21 21 21 20 21 21 21 21 22 23 22 21 19 18 18 19 20 21
26 27 26 26 27 29 31 32 33 31 30 31 31 30 27 25 25 28 29 27 24 25 29 31 27 20 17 18 21 21 20 20 20 18 14 11 9 9 10 11 12 11 10 9 7 5 5 5 6 7 8 9 10 10 9 8 7 7 7 9 12 14 16 18 20 20 20 21 21 21 20 21 21 22 22 22 22 21 19 18 18 19 20 21 22
26 26 26 26 27 28 29 30 31 30 28 28 29 29 28 26 24 24 25 26 26 26 28 32 30 25 22 23 23 24 25 24 20 16 13 11 10 11 12 12 12 11 9 8 6 5 5 5 6 7 8 8 8 8 7 6 5 6 8 10 12 14 16 18 20 20 20 21 21 21 21 21 22 22 21 20 18 18 18 19 19 19 20 21 22
26 26 25 24 25 25 25 26 29 29 27 27 27 27 26 25 25 24 23 23 25 26 28 30 31 29 27 27 27 26 25 23 18 14 13 12 12 13 13 13 12 11 9 8 6 5 4 5 5 6 7 7 6 5 4 3 3 6 8 10 12 14 16 18 19 20 20 20 20 19 19 20 21 20 18 17 17 18 19 20 20 20 20 21 22
25 26 25 23 22 22 23 25 28 29 28 26 26 25 24 22 23 24 23 22 24 27 28 30 31 31 31 30 30 28 25 20 15 13 13 14 14 14 13 12 11 10 9 8 6 5 4 4 5 6 6 5 4 2 2 2 4 7 8 10 12 14 16 18 20 20 21 20 19 19 19 20 19 18 16 16 17 19 19 20 21 21 21 21 22
23 25 25 24 22 20 21 24 27 29 28 27 25 25 24 23 23 22 20 19 20 23 25 25 25 27 30 29 27 26 21 16 13 13 14 14 14 13 12 11 11 10 8 7 5 4 4 4 4 5 4 3 2 1 0 2 5 7 8 10 12 14 16 18 20 21 21 20 19 20 20 20 19 18 17 16 17 18 19 20 20 20 20 21 21
22 23 23 23 22 19 18 21 25 29 29 27 25 24 24 24 24 23 22 19 16 15 17 18 19 25 29 25 22 21 18 16 15 14 14 14 13 11 10 9 9 9 7 6 5 4 4 4 4 4 3 2 2 1 1 3 5 7 8 10 12 14 16 18 19 20 20 20 19 20 21 21 21 20 19 17 17 18 18 19 19 19 20 20 21
19 21 21 20 20 19 17 17 20 27 30 29 26 25 23 23 23 23 23 23 19 16 15 15 18 24 27 24 23 22 21 20 19 18 17 17 15 14 12 10 9 8 7 5 4 4 4 5 5 3 3 3 3 2 2 4 5 7 9 10 12 14 16 18 20 20 20 19 19 21 22 22 22 21 20 18 18 18 18 18 18 19 20 20 21
16 16 17 16 16 16 15 14 15 22 29 30 28 26 24 22 22 22 23 24 23 21 18 16 18 25 28 26 25 26 24 22 21 21 20 19 17 15 13 11 9 8 6 5 4 5 5 5 4 3 4 4 3 2 2 4 6 7 9 11 12 14 16 18 19 20 20 20 20 21 22 23 23 22 21 20 19 18 18 17 17 18 20 20 21
15 12 11 12 13 12 12 11 11 16 23 28 29 27 26 23 21 21 22 23 24 24 23 20 22 29 32 29 25 24 23 22 23 22 21 20 19 16 14 11 9 7 6 5 5 5 5 5 4 4 4 3 2 2 3 5 7 8 10 11 12 14 16 18 19 20 20 20 21 22 23 24 24 23 23 22 21 19 17 16 17 18 19 20 20
13 6 5 7 9 10 10 9 9 10 17 24 28 28 27 25 22 20 21 22 23 24 23 20 20 25 29 26 20 18 19 21 22 22 22 21 19 17 14 11 8 6 6 5 5 5 4 4 4 4 4 3 1 2 4 6 7 9 10 11 11 13 15 17 18 19 20 21 22 23 24 24 24 24 24 24 23 20 17 16 17 19 19 20 20
11 4 3 4 4 6 8 10 9 7 9 15 23 27 27 26 24 21 20 20 19 19 19 20 22 25 27 25 21 18 17 19 21 22 22 20 18 15 12 10 7 6 5 4 4 5 5 4 4 4 3 2 1 2 4 6 8 10 11 11 11 11 13 16 17 18 20 21 23 24 24 25 25 25 25 25 25 22 18 16 17 19 19 20 20
14 10 8 8 6 4 6 8 9 8 6 6 13 22 27 26 24 22 20 17 15 15 16 19 24 28 29 27 22 19 18 19 22 22 20 18 16 13 11 9 7 6 5 4 5 5 5 4 4 4 3 1 1 2 4 6 8 10 11 11 10 10 12 15 16 18 20 22 24 25 25 25 26 26 26 26 25 23 19 16 16 18 19 20 20
18 16 14 12 9 7 5 3 4 6 6 5 7 14 20 22 21 20 18 15 14 14 13 14 19 26 28 26 22 20 21 22 22 21 18 17 15 12 10 9 7 5 4 4 5 5 5 4 4 4 3 1 0 3 5 7 9 11 11 11 10 10 12 14 16 18 20 22 24 26 26 26 26 26 26 27 26 24 21 18 17 18 19 19 20
20 19 17 16 14 12 9 8 6 6 6 7 8 11 14 16 16 15 14 13 13 14 11 9 14 23 28 26 23 23 23 22 20 19 18 16 14 11 9 8 6 4 4 3 4 4 4 4 5 5 4 2 1 3 5 7 9 11 11 11 11 11 12 13 15 17 19 22 24 25 26 27 27 26 26 27 26 25 22 20 19 19 19 19 20
17 16 15 15 15 13 12 10 9 9 9 10 12 13 14 14 13 12 11 9 9 12 12 11 15 23 28 28 26 24 23 21 21 20 18 15 12 10 8 6 5 4 3 3 3 4 4 4 5 5 4 2 0 3 5 7 9 10 11 12 12 12 12 13 15 16 18 21 23 25 26 26 26 26 27 27 26 25 23 21 20 20 19 19 19
22 18 15 14 13 13 13 13 12 13 13 14 15 15 14 13 12 11 10 9 7 10 14 17 20 24 27 27 25 24 23 22 21 19 16 13 10 7 5 4 4 4 3 3 4 4 4 5 6 6 4 3 1 3 5 7 9 10 11 12 13 12 12 13 14 16 18 20 22 24 25 25 26 26 26 26 26 25 24 22 21 21 20 19 19
30 28 24 21 19 17 15 14 14 14 15 15 16 16 15 14 13 13 13 13 13 15 20 23 26 27 26 25 24 23 22 20 18 16 14 11 8 5 3 3 4 4 4 4 4 4 5 6 7 6 4 3 2 2 5 6 8 9 10 12 13 13 12 12 13 15 17 19 21 23 24 24 24 25 25 25 25 25 24 24 23 21 20 19 18
29 30 30 29 27 24 21 18 16 16 15 15 16 16 16 15 16 16 17 18 20 22 24 25 26 25 23 22 21 20 17 15 15 14 12 9 7 5 4 4 4 4 3 3 4 4 5 6 6 5 3 2 1 3 4 6 7 8 10 12 14 14 13 12 13 14 15 17 20 22 23 23 23 24 24 25 25 24 24 24 23 21 20 18 17
25 26 27 28 28 27 25 23 22 20 18 18 18 19 19 20 20 21 21 22 23 23 23 22 21 20 19 18 17 15 13 13 13 12 10 8 6 5 5 5 5 4 3 3 4 4 4 5 4 3 3 2 1 3 4 5 6 7 9 11 14 15 13 12 11 13 14 16 18 20 21 22 22 23 23 24 24 24 24 23 23 21 20 18 16
22 23 24 24 25 24 24 23 23 22 21 21 21 21 21 21 21 21 21 21 21 21 20 19 18 17 16 14 13 13 12 13 12 10 8 7 5 5 5 6 5 4 3 4 4 4 4 4 4 3 2 1 1 2 3 4 5 7 9 11 13 15 14 12 11 12 13 15 17 18 20 20 21 21 22 23 23 23 23 23 22 21 20 18 16
Wind_Direction
244 248 250 251 256 256 250 238 226 228 248 244 226 209 205 205 196 202 220 217 197 181 178 174 170 169 167 166 162 153 145 138 132 123 120 119 115 111 106 102 98 91 87 85 83 86 83 78 75 68 67 69 64 57 55 54 51 45 38 33 33 38 45 48 46 39 29 20 16 13 11 13 15 15 15 14 14 13 11 7 3 0 354 346 339
251 258 259 262 266 263 253 238 232 246 257 229 205 203 208 209 202 202 212 221 217 203 197 188 179 178 176 175 174 167 158 150 143 135 129 124 114 106 99 94 92 85 80 78 71 68 65 60 56 49 44 42 41 37 32 31 32 26 18 11 6 9 19 26 30 31 23 13 8 4 2 3 3 3 4 6 7 8 7 4 360 357 354 351 346
249 259 262 265 266 256 241 237 242 249 239 216 206 209 214 214 209 208 209 217 224 216 208 204 194 189 186 183 182 178 172 164 154 147 141 134 124 115 106 96 91 84 79 76 70 65 58 49 41 37 33 29 27 26 21 18 17 13 8 3 358 356 359 3 9 14 12 6 2 357 354 352 351 351 351 352 355 358 359 358 355 351 348 346 344
186 220 237 245 250 245 237 238 237 223 211 208 210 216 222 220 213 213 211 213 222 221 216 214 209 203 198 194 190 187 184 178 169 162 156 150 141 131 121 111 101 84 65 46 37 32 18 8 2 358 359 359 360 359 357 353 349 347 348 351 352 349 347 346 346 348 351 356 357 355 352 349 346 344 342 342 343 344 345 346 346 345 342 340 339
144 181 194 211 232 239 238 234 219 208 208 214 220 225 230 230 224 220 216 214 218 219 218 217 216 214 211 207 205 200 194 191 184 176 171 166 158 148 142 140 144 151 315 326 322 313 313 314 311 307 306 307 313 317 321 323 322 321 325 328 329 329 329 327 324 326 333 341 348 353 355 353 349 344 340 338 336 335 335 335 334 333 333 334 332
88 193 206 218 226 229 231 229 217 214 220 231 238 236 233 232 234 231 226 222 220 218 217 215 217 218 218 219 219 216 213 209 202 195 189 184 176 171 175 186 199 229 254 271 283 283 284 286 286 287 286 287 290 291 292 297 301 302 303 303 301 302 304 305 307 309 313 322 332 341 345 346 345 343 340 336 332 330 329 328 328 327 327 328 327
29 291 259 251 250 243 236 233 229 228 232 242 250 244 234 232 237 241 238 232 226 222 220 217 216 219 220 222 222 224 227 223 217 214 207 202 201 202 210 221 228 239 257 269 272 269 268 268 268 271 273 274 276 279 281 282 285 288 290 289 288 289 292 293 294 296 299 303 312 322 327 331 334 335 334 333 330 326 323 322 323 323 324 325 324
107 274 267 265 265 261 251 244 241 241 244 251 255 251 241 236 238 245 248 242 235 230 228 226 223 222 223 225 226 227 229 228 224 222 217 215 221 228 234 245 254 258 265 274 278 274 268 266 268 267 266 266 266 267 269 271 274 278 280 282 284 284 287 289 290 294 297 298 299 305 314 321 326 328 329 331 330 327 324 322 320 318 319 321 321
104 103 138 290 294 279 267 255 250 251 252 255 258 256 246 238 238 247 252 251 247 241 236 233 229 228 230 232 234 234 235 234 227 224 233 239 239 238 253 277 282 272 264 272 287 287 277 273 275 273 269 265 262 260 261 262 264 267 270 275 279 281 284 284 285 291 297 299 297 300 309 317 322 325 328 329 329 327 326 324 321 318 316 318 319
96 96 98 90 75 287 272 262 256 257 258 258 260 257 245 234 237 247 251 253 254 247 241 237 233 232 234 237 239 238 240 241 236 239 258 262 248 248 281 302 298 285 278 282 290 290 280 277 278 275 271 268 264 261 260 259 259 261 264 268 272 275 276 276 277 285 293 295 293 295 302 310 314 320 324 326 327 327 326 323 320 319 318 319 320
88 82 89 101 118 160 245 258 258 258 261 265 267 263 248 236 239 248 253 251 245 239 241 245 241 236 237 240 245 248 251 252 247 247 260 261 244 253 284 296 294 293 293 290 289 286 281 280 279 275 272 270 267 264 261 260 259 258 258 261 263 264 263 266 272 281 287 289 289 292 298 305 310 317 321 323 325 325 323 320 319 320 321 322 322
85 67 55 54 99 194 244 256 261 261 264 271 271 264 254 244 242 247 250 247 242 242 245 247 244 240 238 240 246 255 257 252 247 246 249 246 241 254 274 282 286 292 290 284 285 285 283 282 278 274 271 268 267 266 264 262 260 256 253 251 252 255 257 261 269 277 282 285 289 294 299 305 309 313 317 321 322 321 318 317 318 319 320 320 320
43 30 8 338 297 286 282 275 272 270 268 269 267 256 249 245 243 244 244 243 248 251 246 239 239 239 237 237 243 250 247 239 242 249 244 238 242 255 267 272 276 281 281 282 285 284 282 280 276 273 271 268 267 267 266 265 262 256 248 242 245 251 255 259 266 274 280 284 290 295 300 305 307 308 314 317 317 315 314 314 315 316 317 317 317
20 9 349 324 296 282 283 282 281 281 277 271 264 253 245 243 240 239 238 239 244 245 236 230 233 233 229 231 235 237 234 233 240 243 233 232 246 256 260 263 267 273 277 281 281 280 281 282 278 276 273 271 269 268 266 265 261 255 246 242 246 250 253 259 268 276 282 287 293 298 303 305 304 306 312 314 312 311 310 311 312 311 312 312 312
2 359 349 337 323 299 284 279 275 275 274 269 263 258 254 252 248 244 243 242 241 237 230 228 228 222 217 219 222 223 225 228 231 229 227 235 242 243 244 250 259 266 271 274 278 286 297 300 297 289 279 272 267 263 260 257 252 250 249 246 246 248 254 263 272 279 285 290 295 299 301 302 302 306 310 310 309 308 308 309 310 309 309 310 311
321 314 312 315 316 311 305 295 285 277 269 261 257 256 257 258 256 252 246 241 237 230 225 221 217 214 213 213 214 215 216 217 219 221 223 223 220 220 231 241 247 253 261 276 296 313 323 325 319 304 287 275 260 247 244 249 247 243 243 243 245 252 261 270 277 283 288 292 294 297 298 300 304 307 308 307 307 308 309 310 310 310 310 311 312
300 288 279 275 275 280 290 297 297 292 280 268 260 255 253 253 254 251 243 239 237 229 220 214 208 207 209 209 205 204 205 207 209 208 205 202 205 213 223 229 238 253 270 294 313 322 329 331 328 323 318 308 287 261 246 251 245 237 239 247 254 262 270 277 283 287 290 292 294 296 299 304 307 307 306 306 307 307 308 308 308 308 308 309 309
290 280 276 272 267 264 265 271 281 286 285 281 269 253 245 245 248 248 243 241 240 232 221 213 205 201 202 203 199 198 199 200 197 194 192 196 204 211 212 221 244 264 284 301 313 322 325 326 326 325 325 324 322 317 296 264 253 251 254 261 267 273 278 283 287 290 292 294 296 300 304 307 307 306 305 306 306 306 306 305 305 306 307 306 304
281 274 271 269 267 265 263 260 262 269 275 276 265 245 236 233 235 237 234 227 224 220 211 203 197 194 194 193 191 190 191 189 188 189 192 197 205 210 213 225 245 266 289 303 314 322 324 325 325 324 324 321 316 306 289 275 268 266 267 272 276 280 284 287 289 291 294 296 299 303 305 306 305 305 304 305 305 305 305 306 307 307 306 304 303
273 265 261 260 259 260 262 258 255 256 260 261 255 241 231 224 220 222 220 211 204 203 197 191 190 190 190 187 185 186 187 186 186 188 193 200 207 211 214 222 238 265 291 307 316 321 323 326 324 319 315 308 296 286 277 271 270 271 274 277 281 284 287 290 294 296 297 299 301 302 303 303 303 303 303 303 304 305 306 307 307 306 305 303 301
271 264 258 254 250 249 252 254 254 252 250 250 246 237 229 224 219 217 218 213 205 202 200 196 196 197 195 191 187 184 183 184 186 189 196 204 208 208 211 221 239 265 293 310 321 326 325 320 312 303 298 294 290 286 280 274 272 272 273 276 279 282 288 293 296 298 299 299 299 299 300 301 302 302 303 304 305 306 306 306 305 304 302 300 298
272 267 261 256 253 250 247 247 247 248 248 244 239 235 231 226 220 218 219 219 215 213 209 205 204 204 200 192 186 183 182 183 186 191 198 203 205 207 213 223 240 266 300 320 328 328 318 305 296 291 292 293 292 287 282 278 277 276 275 277 280 283 287 291 294 297 298 298 299 300 301 302 303 305 305 306 306 306 306 306 304 303 301 298 295
274 269 263 258 256 253 250 248 244 242 243 239 234 235 235 230 223 219 218 217 215 213 210 206 203 200 194 187 181 178 179 180 183 189 196 200 202 207 215 224 237 262 293 311 319 318 307 296 293 293 295 295 291 286 280 277 277 279 281 284 287 290 293 295 298 299 300 301 302 303 305 306 306 307 307 307 307 307 306 305 303 302 301 299 297
275 272 267 262 257 253 250 248 243 241 242 239 233 233 234 231 224 218 213 212 210 208 205 203 198 193 190 187 183 180 179 180 182 184 188 193 198 206 220 231 239 258 283 300 308 307 301 298 298 298 298 294 289 286 283 283 285 288 291 294 297 300 302 302 303 304 305 306 307 308 309 309 309 308 308 307 307 307 306 305 305 305 305 303 301
273 270 267 264 261 256 251 245 240 239 241 240 236 232 229 227 223 216 209 206 205 202 199 197 194 192 193 193 191 188 186 184 182 181 183 192 203 214 227 238 248 265 285 300 305 304 302 302 300 298 296 292 291 291 292 296 301 304 306 307 307 307 307 308 309 310 310 311 312 312 312 311 310 309 309 308 309 310 309 308 309 310 309 307 305
273 271 268 265 263 260 255 249 242 237 234 231 230 227 224 224 224 219 213 207 203 201 199 197 195 197 198 196 194 192 191 188 185 188 197 204 215 229 238 245 257 273 288 297 300 299 299 299 297 295 293 293 296 301 306 310 313 313 312 312 311 312 313 314 315 315 316 316 316 315 313 312 311 311 311 312 313 313 313 311 311 313 313 312 310
273 271 270 267 264 261 257 253 249 245 240 235 231 225 219 217 218 218 215 211 208 205 203 201 200 200 197 194 193 194 196 201 208 220 229 231 231 234 239 247 260 274 285 290 291 292 294 293 291 290 293 298 304 310 313 315 316 315 316 316 317 319 320 320 321 321 320 320 319 316 314 315 316 316 315 315 315 316 316 316 316 319 320 318 313
272 269 267 266 263 261 257 254 251 249 247 245 241 235 227 218 213 212 213 216 216 213 208 203 200 198 196 197 201 203 209 225 240 245 245 240 235 233 237 249 261 270 276 280 280 281 284 285 286 290 296 304 311 314 316 317 318 318 320 322 323 324 325 326 327 326 325 325 323 321 319 320 321 320 319 319 320 322 321 320 319 321 322 318 313
273 269 266 262 260 258 256 254 251 248 246 246 245 242 236 231 226 219 218 223 226 222 220 218 214 208 205 206 210 216 225 235 239 240 237 231 229 235 243 251 259 264 268 270 270 272 278 280 284 291 299 307 314 317 318 319 320 321 324 325 327 329 330 332 332 331 330 329 326 324 323 324 324 324 324 322 323 323 322 321 320 320 318 315 312
273 269 267 263 259 255 252 252 250 247 243 243 244 242 238 236 237 235 236 238 236 227 225 222 214 208 209 213 221 231 240 233 219 218 219 218 222 235 246 252 258 261 261 259 257 262 273 279 284 295 305 311 316 317 317 319 322 324 326 328 331 334 336 337 336 334 332 330 328 327 327 328 328 327 324 321 321 322 322 322 321 318 315 313 312
277 271 266 262 259 254 250 248 248 246 242 240 241 241 238 237 240 241 242 242 237 232 229 226 219 217 220 225 232 238 232 212 206 209 212 214 223 236 242 245 249 249 246 244 247 256 269 279 289 300 307 311 313 314 317 322 325 326 330 335 338 340 342 341 338 335 332 330 329 327 327 327 326 324 322 321 322 323 323 321 317 314 313 313 313
285 280 273 264 259 255 249 246 245 244 241 239 239 239 239 239 239 239 239 237 232 230 230 230 229 229 220 218 227 232 222 208 205 206 207 211 222 229 230 232 234 232 231 232 240 253 265 277 290 300 306 309 313 317 322 327 327 330 338 343 344 344 343 341 338 335 333 330 328 326 326 326 324 323 323 324 323 323 321 318 315 314 315 316 317
281 283 281 275 267 258 249 243 241 239 238 237 237 237 238 239 238 237 237 233 226 221 222 224 225 221 211 209 217 224 220 212 204 199 202 212 218 218 218 220 219 218 219 224 231 240 255 273 289 300 307 311 315 321 326 326 328 339 346 347 346 345 342 340 339 338 336 333 331 330 328 326 325 323 323 323 321 318 316 316 316 316 317 318 319
273 275 278 279 274 263 251 241 237 234 232 233 234 234 235 236 237 237 238 236 228 218 212 212 213 212 212 212 212 211 210 206 200 197 205 212 211 210 212 210 207 207 209 212 217 228 247 272 291 302 307 310 315 321 321 321 342 352 350 347 345 343 342 341 340 339 340 339 336 332 328 325 323 322 322 321 319 317 316 317 318 318 318 317 317
273 270 270 273 273 267 256 244 233 227 225 226 227 228 227 228 231 234 237 239 234 226 222 219 214 213 216 216 208 199 194 193 195 202 209 210 206 204 203 200 200 201 202 202 209 229 251 274 293 300 301 306 310 303 301 340 360 357 350 345 343 343 343 343 341 341 342 342 338 334 330 325 322 322 320 319 319 320 320 320 319 318 318 317 317
278 272 268 265 266 267 262 250 236 226 221 219 220 222 222 221 222 223 224 226 226 226 229 229 222 220 223 217 198 184 181 188 202 209 208 205 203 199 196 196 196 194 195 199 212 235 258 276 289 290 289 289 273 240 268 19 6 354 346 342 343 344 345 344 342 342 342 341 339 337 335 331 329 328 326 322 322 323 323 321 320 319 319 319 317
280 275 269 263 259 260 262 254 240 228 220 216 215 218 221 222 221 219 220 223 226 225 226 225 220 221 220 204 177 168 178 191 199 201 198 194 189 185 184 190 191 190 195 205 219 240 266 274 272 269 258 226 196 173 66 19 359 348 344 342 343 346 346 344 343 342 342 342 342 342 340 339 340 340 336 329 325 323 321 321 323 322 321 320 318
289 278 271 263 254 251 254 254 243 230 221 215 213 215 219 221 221 220 219 221 223 224 227 227 218 211 204 189 172 173 181 185 185 186 185 182 178 176 179 182 185 192 201 212 227 249 262 257 248 235 204 180 166 131 41 8 352 344 343 343 345 347 347 345 343 343 344 346 346 345 344 345 347 349 344 335 328 325 323 325 328 326 323 322 321
303 286 272 262 250 242 245 250 244 230 222 216 213 214 216 216 216 217 217 216 217 218 221 223 215 204 195 187 182 181 182 185 189 188 184 179 178 179 182 184 188 198 207 218 238 251 248 239 227 200 174 165 148 96 24 2 352 345 343 345 348 349 348 345 344 345 347 349 349 347 347 348 351 353 350 343 335 329 326 327 329 328 326 324 321
314 295 270 253 241 233 233 237 237 229 222 217 214 214 215 214 213 214 214 214 214 213 213 219 222 210 196 186 183 185 187 192 195 191 185 181 179 178 180 184 191 202 214 228 240 240 233 221 200 170 161 159 136 63 17 3 354 346 346 348 349 349 348 346 345 347 350 352 352 350 350 350 351 353 352 349 342 334 330 331 334 332 330 327 322
333 305 251 229 226 224 218 214 218 223 221 218 215 214 214 214 213 213 215 214 214 214 214 219 223 212 195 184 184 192 195 194 192 188 183 180 177 175 177 183 191 205 218 227 226 216 202 188 171 159 159 161 120 31 10 1 353 349 349 349 347 348 348 347 346 348 352 353 353 352 351 351 351 351 353 352 348 342 338 338 338 336 333 330 325
10 28 116 143 175 199 200 198 203 211 217 217 215 213 213 213 211 211 215 216 216 217 216 213 212 205 194 186 185 189 189 189 186 179 174 172 171 171 173 177 188 201 205 198 188 179 169 162 157 156 161 165 73 19 6 359 354 353 351 346 343 346 349 348 347 350 352 353 354 354 353 352 352 352 354 354 351 347 344 343 341 340 337 334 330
42 62 85 98 112 144 174 192 204 207 208 215 213 210 210 210 210 212 217 220 220 220 221 221 218 207 192 180 177 178 177 176 172 167 165 166 167 166 168 173 181 187 181 171 171 170 164 161 158 156 163 176 32 13 1 356 356 354 348 341 340 347 350 348 348 351 351 352 354 355 355 354 354 354 354 354 351 348 348 347 345 342 340 337 334
55 65 77 84 88 94 104 123 177 191 190 193 199 200 202 203 205 210 216 220 224 224 226 230 223 205 185 172 169 170 166 164 163 161 162 164 162 158 161 165 166 163 161 164 170 171 167 165 160 158 166 186 4 5 356 355 357 353 344 339 342 349 350 349 349 351 351 352 353 355 356 356 355 355 355 354 352 352 352 351 347 343 341 339 337
58 64 71 77 78 81 84 86 97 128 152 160 162 169 179 185 190 198 204 212 224 227 222 218 214 199 181 166 161 161 160 159 159 160 159 157 153 150 152 152 148 145 154 165 171 171 166 161 157 160 172 189 340 351 348 353 356 350 343 342 345 348 349 350 350 350 350 351 353 355 356 357 356 356 356 355 355 356 355 353 350 347 345 343 340
59 65 72 77 80 84 87 93 103 113 122 131 137 141 150 159 166 176 184 195 215 218 205 197 203 196 179 161 153 156 156 154 154 153 151 149 146 142 140 142 145 150 157 163 170 166 155 150 156 167 178 188 288 334 339 348 350 347 345 347 347 345 346 349 350 350 351 352 353 355 357 357 357 358 358 357 356 357 356 355 353 351 349 347 344
57 63 70 76 82 87 90 94 102 109 112 118 124 126 128 132 135 140 144 141 153 176 176 173 178 178 167 154 149 152 152 151 152 153 151 149 143 135 131 144 160 164 162 164 166 157 143 148 164 177 184 190 239 313 334 343 344 344 349 353 351 347 346 348 349 350 351 352 354 356 357 357 358 359 359 357 356 356 356 356 354 353 352 350 346
55 58 63 68 72 78 84 91 99 103 105 110 114 114 113 114 117 120 124 125 131 144 151 153 156 159 157 151 149 149 148 149 153 154 152 147 145 145 155 173 177 173 168 164 157 144 143 159 174 183 187 195 237 315 335 340 341 345 354 358 357 353 348 346 348 351 352 353 355 357 357 359 360 360 360 358 357 356 357 357 355 354 353 351 348
57 58 59 62 66 70 75 82 90 96 102 108 113 114 116 119 121 120 121 124 129 136 142 147 150 152 151 148 144 142 144 149 152 152 150 151 159 175 195 196 184 172 161 154 150 149 157 171 181 187 195 210 260 326 338 338 341 350 358 1 1 358 351 345 346 349 351 354 357 358 358 360 1 0 360 359 358 357 358 358 357 355 355 353 350
60 62 62 62 63 66 70 76 82 88 93 99 105 110 114 117 118 120 123 129 134 139 141 143 142 141 140 140 139 140 145 149 150 150 155 166 178 195 206 198 182 162 142 144 154 157 164 177 189 197 211 231 290 336 341 340 346 355 359 1 2 1 356 349 346 347 350 355 359 359 359 0 1 1 0 0 0 360 360 359 359 359 358 357 354
63 67 68 69 69 69 70 73 78 84 89 93 98 104 110 115 119 124 130 135 139 141 140 137 134 133 134 137 140 143 146 148 150 155 166 179 193 206 205 192 176 151 130 139 152 159 169 186 203 219 230 248 308 339 343 344 349 355 358 1 2 3 1 356 350 347 350 355 359 1 2 2 1 0 1 1 2 2 1 1 2 3 2 1 359
Height
1520 1522 1523 1524 1525 1525 1527 1528 1531 1534 1536 1537 1539 1542 1544 1544 1545 1547 1548 1549 1550 1550 1551 1552 1553 1554 1554 1555 1556 1557 1557 1558 1559 1559 1560 1561 1562 1563 1563 1564 1565 1565 1566 1566 1566 1567 1567 1567 1568 1568 1568 1568 1568 1568 1568 1568 1569 1569 1569 1569 1569 1570 1570 1570 1570 1569 1569 1569 1568 1567 1567 1566 1566 1566 1565 1564 1563 1563 1562 1561 1560 1560 1559 1558 1557
1519 1520 1521 1522 1524 1524 1526 1528 1531 1533 1535 1536 1538 1539 1542 1543 1544 1546 1547 1549 1550 1550 1551 1552 1553 1554 1554 1555 1556 1557 1558 1558 1559 1559 1560 1561 1562 1563 1563 1564 1565 1566 1566 1566 1567 1567 1567 1567 1567 1568 1568 1568 1568 1568 1568 1568 1568 1568 1568 1569 1569 1569 1569 1569 1569 1569 1569 1568 1568 1567 1567 1566 1566 1565 1564 1564 1563 1562 1562 1561 1560 1559 1558 1557 1556
1518 1519 1520 1521 1522 1524 1526 1529 1531 1532 1533 1534 1536 1537 1540 1542 1543 1545 1546 1548 1549 1550 1551 1552 1552 1553 1554 1555 1556 1557 1557 1558 1559 1559 1560 1560 1561 1562 1563 1564 1564 1565 1566 1566 1566 1566 1567 1567 1567 1567 1567 1568 1568 1568 1568 1568 1568 1568 1568 1568 1568 1568 1568 1568 1568 1568 1568 1568 1568 1567 1567 1566 1565 1564 1564 1563 1562 1562 1561 1560 1559 1558 1557 1556 1555
1517 1518 1519 1520 1522 1524 1526 1528 1528 1528 1529 1530 1533 1535 1538 1540 1542 1543 1545 1546 1548 1549 1550 1551 1552 1553 1553 1554 1555 1556 1557 1558 1558 1559 1559 1560 1560 1561 1562 1563 1563 1564 1565 1565 1566 1566 1566 1566 1566 1566 1567 1567 1567 1567 1567 1567 1567 1567 1567 1567 1567 1567 1567 1567 1567 1567 1567 1567 1567 1567 1566 1565 1564 1564 1563 1562 1561 1560 1559 1559 1558 1557 1556 1555 1554
1516 1517 1518 1520 1521 1523 1524 1525 1525 1525 1527 1529 1532 1534 1536 1539 1540 1541 1543 1545 1546 1547 1548 1549 1551 1552 1553 1553 1554 1555 1556 1557 1558 1558 1559 1559 1560 1560 1561 1562 1563 1563 1564 1564 1565 1565 1565 1565 1565 1565 1566 1566 1566 1566 1566 1566 1566 1567 1567 1567 1567 1567 1567 1567 1567 1566 1566 1566 1566 1566 1565 1564 1564 1563 1562 1561 1560 1559 1558 1557 1556 1555 1554 1553 1552
1515 1517 1518 1519 1521 1522 1523 1523 1524 1525 1527 1529 1531 1533 1535 1537 1538 1540 1541 1543 1544 1545 1546 1548 1549 1551 1552 1552 1553 1554 1555 1556 1557 1557 1558 1558 1559 1559 1560 1561 1562 1562 1562 1563 1563 1564 1564 1564 1564 1564 1565 1565 1565 1565 1565 1565 1565 1565 1566 1566 1566 1566 1566 1565 1565 1565 1565 1565 1565 1564 1564 1563 1563 1562 1561 1560 1559 1558 1557 1556 1554 1553 1552 1551 1549
1515 1516 1517 1518 1519 1521 1522 1523 1524 1525 1527 1528 1530 1531 1533 1535 1536 1537 1539 1540 1542 1543 1544 1546 1547 1549 1550 1551 1552 1553 1554 1555 1556 1557 1557 1558 1558 1559 1559 1560 1561 1561 1561 1561 1562 1562 1562 1563 1563 1563 1563 1563 1563 1563 1563 1563 1563 1563 1564 1564 1564 1564 1564 1564 1564 1564 1564 1564 1564 1563 1563 1562 1562 1561 1560 1559 1558 1557 1557 1555 1554 1552 1551 1549 1547
1515 1516 1517 1517 1518 1519 1520 1522 1523 1524 1526 1528 1529 1529 1530 1532 1533 1535 1537 1538 1540 1541 1542 1543 1545 1546 1548 1549 1550 1551 1552 1553 1554 1555 1556 1556 1557 1558 1559 1560 1560 1560 1560 1560 1560 1561 1561 1561 1561 1561 1561 1561 1561 1561 1561 1561 1561 1561 1562 1562 1562 1562 1562 1563 1562 1562 1562 1562 1562 1562 1561 1560 1560 1559 1558 1557 1556 1555 1554 1554 1552 1551 1550 1548 1546
1515 1516 1516 1517 1517 1518 1519 1520 1521 1523 1524 1526 1527 1528 1528 1529 1531 1533 1535 1537 1538 1539 1540 1541 1542 1544 1545 1547 1548 1549 1550 1552 1553 1554 1554 1554 1556 1557 1557 1558 1559 1559 1559 1559 1559 1559 1559 1559 1559 1559 1559 1559 1559 1559 1559 1559 1559 1559 1559 1560 1561 1561 1561 1561 1561 1560 1560 1560 1560 1560 1559 1559 1558 1557 1556 1555 1554 1553 1552 1551 1550 1549 1548 1546 1545
1515 1515 1516 1516 1517 1517 1518 1519 1520 1521 1522 1523 1524 1525 1526 1527 1529 1531 1533 1534 1535 1537 1538 1539 1540 1541 1543 1544 1545 1546 1548 1550 1551 1552 1552 1553 1555 1555 1555 1556 1557 1557 1557 1557 1557 1556 1556 1556 1556 1556 1556 1556 1556 1556 1556 1556 1556 1556 1557 1558 1558 1559 1559 1559 1559 1558 1558 1558 1558 1558 1558 1557 1556 1555 1554 1553 1552 1551 1549 1548 1547 1546 1545 1544 1543
1515 1515 1515 1516 1516 1516 1517 1517 1518 1519 1520 1521 1522 1522 1523 1525 1527 1528 1530 1531 1532 1534 1535 1536 1537 1538 1540 1542 1542 1544 1546 1548 1549 1550 1551 1552 1553 1553 1554 1554 1555 1555 1555 1555 1554 1554 1554 1554 1554 1553 1553 1553 1553 1553 1553 1553 1553 1554 1554 1555 1556 1556 1556 1557 1557 1557 1556 1556 1556 1556 1555 1555 1554 1553 1552 1550 1549 1549 1547 1546 1544 1543 1542 1541 1540
1513 1514 1515 1515 1515 1516 1516 1516 1517 1518 1518 1519 1520 1520 1521 1523 1524 1525 1526 1528 1529 1530 1532 1533 1535 1536 1538 1539 1540 1541 1543 1545 1546 1547 1549 1549 1550 1551 1552 1552 1552 1553 1553 1552 1552 1552 1551 1551 1551 1551 1550 1550 1550 1550 1550 1550 1551 1551 1551 1552 1553 1553 1554 1554 1554 1554 1554 1554 1554 1553 1553 1552 1551 1550 1549 1548 1547 1546 1545 1544 1542 1541 1539 1538 1537
1513 1513 1514 1514 1514 1515 1515 1515 1516 1516 1517 1517 1518 1519 1519 1520 1522 1523 1524 1526 1527 1527 1528 1530 1532 1532 1533 1536 1537 1538 1540 1542 1544 1545 1546 1547 1548 1549 1550 1550 1550 1550 1550 1550 1550 1549 1549 1548 1548 1548 1548 1548 1548 1548 1548 1548 1548 1548 1548 1549 1550 1551 1552 1552 1552 1552 1552 1552 1551 1551 1550 1550 1549 1547 1547 1546 1545 1544 1543 1541 1540 1538 1537 1535 1533
1513 1513 1513 1514 1514 1514 1514 1514 1514 1515 1515 1516 1516 1517 1518 1519 1520 1521 1522 1523 1524 1525 1526 1527 1528 1529 1530 1532 1534 1535 1537 1540 1542 1543 1543 1545 1546 1547 1547 1548 1548 1548 1548 1548 1547 1547 1547 1546 1546 1546 1546 1546 1546 1546 1546 1546 1546 1546 1546 1547 1548 1549 1550 1550 1550 1550 1549 1549 1549 1548 1547 1547 1546 1545 1544 1543 1542 1541 1540 1539 1537 1535 1534 1532 1530
1513 1513 1513 1514 1514 1514 1514 1514 1514 1514 1514 1514 1515 1516 1517 1518 1519 1520 1521 1522 1523 1523 1523 1524 1525 1526 1528 1529 1530 1532 1534 1537 1539 1539 1541 1542 1544 1545 1545 1546 1546 1546 1546 1546 1546 1545 1545 1545 1545 1544 1544 1544 1545 1544 1545 1544 1544 1545 1545 1546 1547 1548 1548 1548 1548 1548 1547 1547 1546 1545 1544 1544 1543 1542 1541 1540 1539 1538 1537 1535 1534 1532 1530 1528 1527
1513 1513 1513 1513 1514 1514 1514 1514 1513 1513 1513 1513 1514 1514 1515 1517 1518 1519 1520 1521 1521 1520 1521 1522 1523 1524 1525 1526 1528 1530 1532 1534 1535 1537 1538 1540 1541 1542 1543 1544 1544 1544 1544 1544 1544 1544 1544 1543 1543 1543 1543 1543 1543 1543 1543 1543 1544 1544 1544 1545 1546 1546 1546 1546 1546 1545 1545 1544 1544 1543 1542 1541 1541 1539 1538 1537 1536 1534 1533 1532 1530 1528 1526 1524 1523
1513 1513 1513 1513 1513 1513 1513 1513 1513 1513 1512 1512 1512 1512 1513 1515 1515 1516 1517 1518 1518 1517 1518 1519 1520 1521 1523 1524 1526 1527 1529 1531 1533 1535 1536 1538 1539 1540 1541 1542 1542 1543 1543 1543 1543 1542 1542 1542 1542 1542 1542 1542 1542 1542 1542 1543 1543 1544 1544 1545 1545 1545 1545 1544 1544 1543 1542 1542 1541 1540 1540 1539 1538 1536 1535 1534 1533 1532 1530 1529 1527 1525 1523 1521 1520
1512 1512 1512 1512 1512 1512 1512 1512 1512 1512 1512 1511 1510 1510 1511 1512 1513 1513 1514 1515 1517 1517 1517 1518 1518 1519 1521 1523 1523 1525 1527 1529 1531 1533 1535 1536 1537 1538 1539 1540 1540 1541 1541 1541 1541 1541 1541 1541 1541 1541 1541 1541 1541 1541 1541 1542 1542 1543 1543 1544 1543 1543 1543 1542 1542 1541 1540 1539 1538 1538 1537 1536 1534 1533 1532 1531 1530 1528 1527 1526 1524 1522 1520 1519 1517
1511 1511 1511 1511 1511 1511 1511 1511 1510 1510 1511 1510 1510 1509 1509 1510 1511 1512 1512 1514 1515 1516 1516 1517 1517 1518 1519 1521 1522 1524 1526 1528 1530 1532 1533 1534 1535 1536 1537 1538 1538 1539 1539 1539 1539 1540 1540 1540 1540 1540 1540 1540 1540 1540 1541 1541 1542 1542 1542 1542 1542 1541 1541 1540 1540 1539 1538 1537 1536 1535 1534 1533 1532 1531 1529 1528 1526 1525 1524 1522 1521 1519 1517 1515 1514
1510 1509 1509 1509 1510 1509 1509 1509 1509 1509 1509 1509 1509 1509 1508 1508 1509 1510 1512 1513 1514 1514 1515 1515 1516 1518 1519 1520 1522 1523 1525 1526 1528 1530 1531 1532 1533 1534 1535 1536 1537 1537 1537 1538 1538 1538 1538 1538 1538 1538 1539 1539 1539 1539 1540 1540 1540 1540 1540 1540 1540 1539 1539 1538 1538 1537 1536 1535 1533 1533 1532 1530 1529 1528 1526 1525 1523 1522 1520 1519 1517 1516 1513 1511 1510
1508 1507 1507 1507 1507 1507 1507 1507 1507 1506 1507 1507 1508 1508 1508 1507 1507 1508 1510 1512 1513 1514 1514 1515 1516 1517 1519 1520 1521 1522 1523 1525 1526 1528 1529 1530 1532 1533 1533 1534 1535 1535 1536 1536 1536 1537 1537 1537 1537 1537 1537 1538 1538 1538 1538 1538 1538 1538 1538 1538 1537 1537 1537 1536 1535 1534 1533 1532 1531 1530 1529 1528 1526 1525 1523 1522 1520 1518 1517 1515 1513 1512 1510 1508 1506
1505 1505 1505 1505 1505 1505 1505 1505 1505 1504 1504 1505 1506 1506 1506 1506 1506 1506 1508 1510 1512 1513 1513 1514 1515 1517 1518 1519 1520 1521 1522 1524 1525 1526 1527 1529 1530 1531 1531 1532 1533 1533 1534 1534 1534 1535 1535 1535 1535 1536 1536 1536 1536 1536 1536 1536 1536 1536 1536 1536 1535 1535 1534 1533 1533 1532 1531 1530 1529 1528 1526 1525 1523 1522 1520 1518 1517 1515 1513 1511 1510 1508 1506 1504 1502
1501 1501 1501 1502 1502 1502 1503 1502 1502 1502 1502 1502 1503 1504 1505 1504 1504 1505 1506 1508 1509 1510 1511 1512 1514 1515 1517 1519 1519 1520 1521 1522 1523 1524 1525 1526 1527 1528 1529 1530 1530 1531 1531 1532 1532 1533 1533 1533 1534 1534 1534 1534 1534 1534 1534 1534 1534 1534 1534 1533 1533 1532 1532 1531 1530 1529 1528 1527 1526 1525 1523 1522 1520 1518 1516 1515 1513 1511 1509 1507 1505 1503 1501 1499 1498
1497 1497 1497 1498 1499 1499 1499 1500 1500 1500 1499 1500 1500 1501 1502 1503 1503 1503 1504 1505 1506 1507 1509 1510 1511 1513 1515 1517 1518 1519 1519 1520 1521 1522 1523 1524 1525 1526 1527 1527 1528 1529 1529 1530 1530 1531 1531 1531 1532 1532 1532 1532 1532 1532 1532 1532 1532 1532 1531 1531 1530 1530 1529 1528 1527 1526 1525 1524 1523 1522 1520 1518 1517 1515 1513 1511 1509 1507 1505 1503 1501 1499 1497 1495 1493
1493 1493 1493 1494 1494 1495 1496 1496 1497 1497 1497 1497 1497 1498 1499 1500 1501 1501 1502 1502 1503 1504 1505 1506 1508 1510 1512 1514 1515 1516 1517 1518 1519 1519 1520 1521 1523 1524 1524 1525 1526 1526 1527 1527 1528 1529 1529 1530 1530 1530 1530 1530 1530 1530 1530 1530 1530 1529 1529 1529 1528 1527 1526 1526 1525 1524 1523 1521 1520 1519 1517 1515 1513 1511 1509 1507 1505 1503 1501 1498 1496 1495 1493 1491 1489
1488 1488 1489 1490 1490 1491 1491 1492 1493 1493 1494 1494 1495 1495 1496 1497 1498 1499 1499 1500 1501 1502 1503 1504 1505 1507 1508 1510 1512 1513 1514 1515 1516 1517 1518 1519 1520 1521 1522 1523 1524 1524 1525 1525 1526 1527 1527 1528 1528 1529 1529 1529 1529 1528 1528 1528 1528 1527 1527 1526 1526 1525 1524 1523 1522 1521 1520 1519 1517 1515 1514 1511 1509 1507 1505 1503 1501 1499 1497 1495 1493 1491 1490 1488 1485
1484 1484 1484 1485 1486 1486 1487 1488 1488 1489 1490 1491 1491 1492 1493 1493 1494 1495 1497 1498 1498 1498 1499 1500 1502 1504 1506 1507 1508 1509 1511 1512 1513 1515 1516 1517 1518 1519 1520 1521 1521 1522 1523 1524 1524 1525 1526 1526 1527 1527 1527 1527 1527 1527 1526 1526 1526 1525 1524 1524 1523 1522 1522 1521 1520 1519 1517 1516 1514 1512 1510 1508 1506 1504 1502 1500 1498 1496 1494 1492 1490 1488 1487 1485 1482
1478 1479 1479 1480 1480 1481 1482 1483 1484 1485 1486 1487 1487 1488 1489 1490 1491 1492 1494 1495 1496 1497 1497 1498 1499 1501 1503 1505 1506 1507 1509 1510 1512 1513 1514 1515 1516 1517 1517 1518 1519 1520 1521 1522 1522 1523 1524 1525 1526 1526 1526 1526 1525 1525 1525 1524 1524 1523 1522 1521 1521 1520 1520 1519 1518 1517 1515 1513 1512 1509 1507 1505 1503 1501 1499 1497 1495 1493 1491 1489 1487 1486 1484 1482 1480
1472 1472 1473 1474 1475 1475 1477 1478 1479 1481 1482 1482 1483 1484 1486 1487 1488 1489 1491 1492 1494 1495 1497 1498 1499 1499 1501 1503 1504 1506 1507 1509 1511 1512 1513 1513 1514 1515 1515 1516 1517 1518 1518 1519 1520 1522 1523 1524 1524 1525 1525 1524 1524 1524 1523 1522 1522 1521 1520 1520 1519 1519 1518 1517 1516 1515 1513 1511 1509 1507 1505 1503 1500 1498 1496 1494 1492 1491 1489 1487 1485 1484 1482 1480 1478
1466 1466 1467 1468 1469 1470 1471 1472 1473 1475 1477 1478 1479 1480 1481 1483 1484 1485 1487 1489 1491 1493 1495 1496 1497 1497 1497 1500 1503 1505 1506 1507 1509 1510 1510 1511 1511 1512 1513 1514 1515 1515 1516 1518 1519 1520 1522 1522 1523 1523 1523 1523 1522 1522 1521 1521 1520 1519 1519 1519 1518 1518 1517 1516 1514 1513 1511 1509 1507 1504 1502 1500 1498 1496 1494 1492 1490 1489 1487 1485 1483 1482 1480 1478 1476
1461 1461 1461 1462 1462 1464 1465 1466 1467 1469 1471 1473 1474 1475 1477 1478 1480 1481 1483 1485 1488 1490 1491 1493 1493 1493 1494 1497 1501 1503 1504 1505 1506 1507 1507 1508 1509 1510 1511 1512 1513 1514 1515 1516 1518 1519 1520 1521 1521 1522 1521 1521 1521 1520 1520 1519 1519 1518 1518 1518 1517 1516 1515 1514 1513 1511 1509 1507 1505 1502 1500 1498 1496 1494 1492 1490 1488 1486 1485 1483 1481 1479 1478 1476 1474
1457 1456 1456 1456 1457 1458 1459 1461 1462 1464 1466 1468 1469 1471 1472 1474 1475 1477 1479 1481 1483 1485 1487 1488 1490 1492 1493 1495 1497 1500 1501 1502 1503 1504 1505 1506 1507 1509 1509 1510 1511 1512 1514 1515 1516 1518 1519 1519 1520 1520 1520 1519 1519 1518 1518 1518 1517 1517 1517 1517 1516 1515 1514 1513 1511 1509 1507 1505 1503 1501 1499 1497 1494 1492 1490 1488 1486 1484 1482 1481 1479 1477 1475 1473 1471
1453 1452 1452 1452 1452 1452 1454 1455 1457 1459 1461 1463 1465 1466 1468 1470 1471 1473 1475 1477 1479 1480 1481 1483 1486 1489 1491 1491 1493 1496 1499 1500 1501 1502 1503 1505 1506 1507 1508 1509 1510 1511 1512 1514 1515 1516 1517 1518 1518 1518 1518 1517 1517 1517 1516 1516 1516 1516 1516 1516 1515 1514 1513 1511 1509 1507 1505 1503 1501 1499 1497 1494 1492 1490 1488 1486 1484 1482 1480 1479 1477 1475 1473 1471 1469
1449 1448 1448 1448 1448 1448 1449 1450 1452 1454 1457 1459 1461 1463 1464 1466 1468 1470 1471 1473 1475 1477 1478 1480 1482 1485 1487 1488 1490 1493 1496 1497 1498 1500 1501 1502 1503 1505 1506 1507 1508 1509 1511 1512 1513 1514 1515 1516 1516 1516 1516 1516 1515 1515 1515 1515 1516 1515 1515 1514 1514 1513 1512 1510 1508 1506 1504 1502 1499 1497 1495 1493 1491 1488 1486 1484 1482 1480 1478 1477 1475 1473 1471 1469 1467
1444 1443 1443 1443 1444 1444 1445 1446 1447 1449 1452 1455 1457 1459 1461 1463 1465 1467 1468 1470 1472 1474 1475 1476 1478 1481 1483 1485 1486 1488 1492 1494 1496 1497 1499 1500 1501 1502 1504 1505 1507 1508 1509 1510 1511 1512 1513 1514 1514 1514 1514 1514 1514 1514 1514 1514 1515 1514 1514 1513 1513 1512 1510 1509 1507 1505 1503 1500 1498 1496 1494 1492 1489 1487 1484 1482 1480 1478 1476 1474 1473 1471 1469 1467 1465
1440 1439 1438 1439 1439 1440 1441 1442 1443 1445 1448 1450 1453 1456 1458 1460 1462 1464 1466 1467 1469 1471 1472 1473 1476 1479 1481 1482 1483 1486 1489 1492 1494 1496 1498 1498 1499 1501 1502 1503 1505 1506 1508 1509 1510 1510 1511 1512 1512 1513 1513 1513 1513 1513 1513 1514 1514 1513 1513 1512 1512 1510 1509 1507 1505 1503 1501 1499 1497 1495 1492 1490 1488 1485 1482 1480 1478 1476 1474 1472 1470 1468 1467 1465 1463
1435 1434 1434 1434 1435 1436 1437 1438 1439 1441 1444 1447 1450 1452 1454 1457 1459 1461 1463 1465 1467 1469 1470 1472 1474 1476 1478 1480 1482 1485 1487 1491 1493 1495 1496 1497 1498 1499 1501 1502 1504 1505 1506 1507 1508 1509 1509 1510 1511 1511 1511 1512 1512 1512 1513 1513 1513 1512 1512 1511 1510 1509 1508 1506 1504 1502 1500 1498 1495 1493 1491 1488 1485 1483 1480 1478 1476 1474 1472 1470 1468 1466 1464 1463 1461
1430 1429 1429 1430 1431 1433 1434 1434 1436 1438 1440 1443 1446 1449 1451 1454 1456 1458 1460 1462 1464 1467 1469 1470 1472 1473 1475 1477 1480 1482 1484 1488 1490 1492 1493 1495 1496 1498 1499 1501 1503 1504 1505 1506 1506 1507 1508 1509 1509 1510 1510 1511 1511 1512 1512 1512 1512 1511 1511 1510 1509 1508 1506 1505 1503 1501 1499 1496 1494 1492 1489 1486 1483 1481 1478 1476 1474 1472 1470 1468 1466 1464 1462 1460 1458
1426 1425 1425 1426 1428 1429 1431 1432 1433 1434 1437 1440 1443 1446 1448 1451 1453 1456 1458 1460 1462 1464 1467 1469 1470 1471 1472 1474 1476 1478 1481 1484 1487 1489 1490 1492 1494 1496 1498 1500 1502 1503 1504 1505 1505 1506 1507 1507 1508 1509 1510 1510 1510 1511 1511 1511 1511 1510 1510 1509 1507 1506 1505 1503 1502 1500 1497 1495 1493 1490 1488 1485 1482 1479 1477 1474 1472 1470 1467 1466 1464 1462 1460 1458 1456
1423 1422 1422 1424 1425 1427 1429 1430 1432 1432 1434 1437 1440 1443 1446 1449 1451 1454 1456 1458 1460 1462 1464 1466 1467 1468 1469 1471 1473 1476 1479 1481 1484 1487 1489 1491 1493 1495 1497 1499 1500 1502 1503 1503 1504 1505 1506 1506 1507 1508 1509 1509 1510 1510 1510 1510 1510 1509 1508 1507 1506 1505 1504 1502 1501 1499 1496 1494 1491 1489 1486 1483 1480 1478 1475 1473 1470 1468 1466 1464 1462 1460 1458 1456 1454
1421 1420 1420 1422 1424 1426 1427 1429 1431 1432 1433 1435 1438 1441 1444 1447 1450 1452 1454 1456 1458 1460 1462 1464 1465 1467 1469 1471 1473 1476 1478 1480 1483 1486 1488 1490 1492 1494 1495 1497 1499 1501 1502 1502 1503 1504 1505 1506 1506 1507 1508 1508 1509 1509 1509 1509 1508 1508 1507 1506 1505 1504 1503 1501 1500 1497 1495 1492 1490 1487 1485 1482 1479 1476 1474 1471 1469 1467 1464 1462 1460 1458 1457 1455 1453
1421 1420 1421 1422 1424 1425 1427 1428 1430 1431 1432 1434 1436 1439 1442 1445 1448 1451 1453 1455 1456 1458 1460 1462 1464 1466 1468 1470 1473 1475 1477 1480 1482 1485 1487 1490 1492 1493 1494 1496 1498 1500 1501 1501 1502 1503 1504 1505 1506 1506 1507 1507 1508 1508 1508 1508 1507 1506 1505 1505 1504 1503 1502 1500 1498 1496 1494 1491 1489 1486 1483 1481 1478 1475 1472 1470 1467 1465 1463 1461 1459 1457 1455 1453 1451
1424 1423 1423 1424 1425 1426 1427 1428 1430 1431 1432 1433 1434 1437 1440 1443 1446 1449 1451 1454 1456 1457 1459 1461 1463 1465 1467 1469 1472 1475 1477 1480 1482 1485 1487 1489 1490 1492 1493 1495 1497 1499 1500 1500 1501 1502 1503 1504 1505 1505 1506 1506 1507 1507 1507 1507 1506 1505 1504 1504 1503 1501 1500 1499 1497 1495 1492 1490 1487 1485 1482 1479 1476 1474 1471 1468 1466 1463 1461 1459 1457 1456 1454 1452 1450
1428 1427 1426 1426 1427 1427 1428 1429 1430 1431 1432 1433 1434 1436 1439 1442 1445 1448 1451 1453 1455 1457 1459 1461 1463 1465 1467 1469 1472 1475 1477 1479 1482 1484 1486 1488 1490 1492 1493 1495 1497 1498 1498 1499 1500 1501 1502 1503 1504 1504 1505 1505 1506 1506 1506 1505 1505 1504 1503 1502 1501 1500 1499 1497 1496 1493 1491 1489 1486 1483 1481 1478 1475 1473 1470 1468 1465 1462 1460 1458 1456 1454 1452 1450 1448
1432 1431 1430 1429 1429 1429 1430 1430 1431 1432 1433 1434 1435 1437 1439 1442 1445 1448 1451 1453 1454 1456 1458 1460 1463 1466 1468 1469 1471 1475 1477 1479 1481 1484 1486 1488 1490 1492 1494 1495 1496 1497 1498 1499 1500 1501 1501 1502 1503 1503 1504 1504 1505 1505 1505 1504 1504 1503 1502 1501 1500 1499 1497 1496 1494 1492 1490 1488 1485 1482 1480 1477 1475 1472 1469 1467 1464 1461 1459 1457 1455 1453 1451 1449 1447
1436 1435 1434 1433 1433 1432 1432 1432 1433 1434 1434 1435 1437 1438 1441 1443 1446 1449 1451 1452 1453 1455 1457 1459 1462 1467 1470 1470 1472 1475 1478 1479 1481 1484 1486 1488 1491 1492 1494 1495 1496 1496 1497 1498 1499 1500 1501 1501 1501 1502 1503 1503 1503 1504 1504 1503 1503 1502 1501 1500 1499 1497 1496 1495 1493 1491 1489 1487 1484 1482 1479 1476 1474 1471 1469 1466 1464 1461 1459 1457 1455 1452 1450 1448 1446
1439 1438 1437 1436 1435 1435 1435 1435 1435 1436 1437 1438 1439 1441 1443 1445 1447 1449 1450 1451 1452 1454 1456 1458 1462 1469 1473 1473 1473 1476 1478 1480 1482 1485 1487 1489 1491 1492 1493 1494 1495 1496 1497 1498 1499 1499 1500 1500 1501 1501 1502 1502 1503 1503 1503 1502 1502 1501 1500 1499 1498 1496 1495 1493 1492 1490 1488 1486 1484 1481 1478 1476 1473 1471 1469 1466 1463 1461 1458 1456 1454 1452 1450 1448 1446
1444 1442 1440 1439 1438 1438 1438 1438 1438 1439 1439 1440 1442 1443 1445 1447 1448 1450 1451 1452 1453 1456 1458 1461 1465 1470 1474 1474 1475 1477 1479 1481 1483 1486 1487 1489 1491 1492 1493 1495 1495 1496 1497 1498 1498 1499 1499 1499 1500 1500 1501 1501 1502 1502 1502 1501 1501 1500 1499 1498 1497 1495 1494 1492 1491 1489 1488 1485 1483 1481 1478 1476 1473 1471 1469 1466 1464 1461 1458 1456 1453 1451 1449 1448 1446
1449 1447 1446 1444 1443 1442 1441 1441 1441 1442 1443 1443 1445 1446 1447 1449 1450 1451 1453 1455 1457 1459 1462 1465 1468 1472 1474 1475 1476 1478 1480 1482 1484 1486 1488 1490 1491 1492 1493 1495 1495 1496 1496 1497 1497 1498 1498 1499 1499 1499 1500 1501 1501 1501 1501 1501 1500 1499 1499 1498 1496 1495 1493 1491 1490 1489 1487 1485 1483 1480 1478 1476 1473 1471 1469 1466 1464 1461 1459 1456 1454 1451 1449 1447 1446
1453 1451 1450 1449 1448 1448 1447 1446 1446 1446 1447 1447 1448 1449 1450 1451 1453 1455 1457 1459 1461 1464 1466 1469 1471 1473 1475 1476 1478 1479 1481 1483 1485 1487 1489 1490 1491 1492 1493 1494 1495 1495 1496 1496 1497 1497 1498 1498 1498 1499 1499 1500 1500 1500 1500 1500 1499 1499 1498 1497 1495 1494 1492 1491 1489 1488 1486 1485 1483 1481 1478 1476 1474 1471 1469 1467 1464 1461 1459 1456 1454 1452 1449 1448 1446
1457 1456 1454 1453 1453 1453 1452 1452 1451 1451 1452 1452 1453 1453 1455 1456 1457 1459 1461 1463 1465 1467 1469 1471 1473 1474 1476 1478 1479 1481 1482 1484 1486 1487 1489 1490 1491 1492 1493 1493 1494 1495 1495 1495 1496 1497 1497 1497 1498 1498 1498 1499 1499 1499 1499 1499 1499 1498 1497 1496 1495 1494 1492 1490 1489 1488 1486 1484 1483 1481 1478 1476 1474 1472 1469 1467 1464 1462 1459 1457 1454 1452 1450 1448 1446